{"data":{"norad_id":69438,"epoch":"2026-09-19T09:12:30.714912Z","epoch_age_seconds":123179,"freshness":"FRESH","line1":"1 69438U 26126U   26262.38368883  .00015752  00000+0  48926-3 0  9993","line2":"2 69438  97.2845 123.6406 0002499  87.7233 272.4295 15.33441100 17408","mean_motion":15.334411,"eccentricity":0.0002499,"inclination_deg":97.2845,"raan_deg":123.6406,"arg_perigee_deg":87.7233,"mean_anomaly_deg":272.4295,"bstar":0.00048926,"rev_number":1740,"period_min":93.906443488439,"perigee_km":463.84453958348,"apogee_km":467.2650167342,"semimajor_km":6843.6917781588,"source":"CELESTRAK","updated_at":"2026-09-20T09:00:44.197858Z"}}